Weather reports worldwide

Advertisment
Sevilla/San Pablo, Spain (8391): temperature & dewpoint: 13.08.2019 00:00:00 - 19.08.2019 00:00:00 (CEST)Sevilla/San Pablo, Spain (8391): wind speed: 13.08.2019 00:00:00 - 19.08.2019 00:00:00 (CEST)Sevilla/San Pablo, Spain (8391): wind direction: 13.08.2019 00:00:00 - 19.08.2019 00:00:00 (CEST)Sevilla/San Pablo, Spain (8391): reduced air pressure: 13.08.2019 00:00:00 - 19.08.2019 00:00:00 (CEST)Sevilla/San Pablo, Spain (8391): visibility: 13.08.2019 00:00:00 - 19.08.2019 00:00:00 (CEST)
Date & Time tt [°C] td [°C] ff [km/h] ff [kn] dd ppp [hPa] vv [km]
19.08.2019 00:00:00 24,1 16,9 16 9 SSW 1014,2 -
18.08.2019 23:00:00 24,8 16,2 16 9 SW 1014,0 30
18.08.2019 22:00:00 26,3 15,7 15 8 SSW 1013,0 -
18.08.2019 21:00:00 28,5 14,7 26 14 SSW 1012,1 30
18.08.2019 20:00:00 32,1 14,7 22 12 SSW 1011,6 -
18.08.2019 19:00:00 33,7 13,7 28 15 SW 1011,7 -
18.08.2019 18:00:00 34,3 14,8 24 13 SW 1012,0 -
18.08.2019 17:00:00 34,8 15,2 22 12 SW 1012,3 30
18.08.2019 16:00:00 34,0 16,8 18 10 SW 1012,5 -
18.08.2019 15:00:00 32,4 17,8 16 9 SW 1013,3 -
18.08.2019 14:00:00 31,1 18,0 21 11 SW 1013,9 30
18.08.2019 13:00:00 29,4 18,3 18 10 SW 1014,2 -
18.08.2019 12:00:00 28,7 16,5 18 10 SW 1014,5 -
18.08.2019 11:00:00 26,7 17,7 18 10 SW 1014,1 30
18.08.2019 10:00:00 25,2 17,4 15 8 SW 1013,8 -
18.08.2019 09:00:00 23,6 15,4 9 5 SW 1012,9 -
18.08.2019 08:00:00 21,4 13,3 5 3 SSE 1012,6 30
18.08.2019 07:00:00 21,2 13,6 4 2 S 1012,1 -
18.08.2019 06:00:00 21,6 13,9 5 3 SE 1011,6 -
18.08.2019 05:00:00 22,3 13,8 4 2 SSE 1011,7 30
18.08.2019 04:00:00 23,1 14,3 5 3 S 1012,2 -
18.08.2019 03:00:00 24,4 15,1 8 4 S 1012,5 -
18.08.2019 02:00:00 24,9 14,7 18 10 S 1012,7 30
18.08.2019 01:00:00 26,9 12,5 11 6 SSW 1012,7 -
18.08.2019 00:00:00 29,3 11,4 11 6 SSW 1012,5 -
17.08.2019 23:00:00 32,7 8,9 11 6 SW 1011,8 30
17.08.2019 22:00:00 34,2 8,8 13 7 WSW 1011,0 -
17.08.2019 21:00:00 36,1 8,0 15 8 W 1010,5 -
17.08.2019 20:00:00 38,3 9,0 22 12 WSW 1010,2 30
17.08.2019 19:00:00 39,5 12,2 15 8 WSW 1010,4 -
17.08.2019 18:00:00 39,8 5,6 15 8 SW 1011,0 -
17.08.2019 17:00:00 39,8 6,2 18 10 W 1011,4 30
17.08.2019 16:00:00 39,7 7,2 15 8 SW 1011,9 -
17.08.2019 15:00:00 38,6 10,0 9 5 W 1012,7 -
17.08.2019 14:00:00 36,5 11,3 8 4 WNW 1013,5 30
17.08.2019 13:00:00 35,1 11,5 5 3 SE 1014,1 -
17.08.2019 12:00:00 32,4 11,5 4 2 NNE 1014,6 -
17.08.2019 11:00:00 29,4 12,3 4 2 NE 1015,0 30
17.08.2019 10:00:00 26,4 13,2 8 4 NE 1015,1 -
17.08.2019 09:00:00 23,0 13,5 5 3 NE 1014,9 -
17.08.2019 08:00:00 21,3 13,7 4 2 NE 1014,8 30
17.08.2019 07:00:00 21,3 14,2 8 4 E 1014,7 -
17.08.2019 06:00:00 21,9 14,8 5 3 E 1014,7 -
17.08.2019 05:00:00 23,0 14,9 2 1 S 1014,8 30
17.08.2019 04:00:00 23,6 14,9 8 4 S 1014,7 -
17.08.2019 03:00:00 23,7 14,9 16 9 S 1014,8 -
17.08.2019 02:00:00 25,6 12,8 15 8 S 1014,9 30
17.08.2019 01:00:00 27,1 12,3 11 6 SW 1015,1 -
17.08.2019 00:00:00 28,2 12,4 8 4 SSW 1015,2 -
16.08.2019 23:00:00 30,2 11,2 13 7 SSW 1015,0 30
16.08.2019 22:00:00 32,7 9,7 15 8 SW 1014,0 -
16.08.2019 21:00:00 34,2 10,1 22 12 SW 1013,4 -
16.08.2019 20:00:00 36,9 10,2 18 10 WSW 1013,0 30
16.08.2019 19:00:00 37,7 10,1 22 12 WSW 1013,1 -
16.08.2019 18:00:00 37,7 10,9 21 11 SW 1013,4 -
16.08.2019 17:00:00 37,8 11,7 22 12 SW 1014,0 30
16.08.2019 16:00:00 36,9 13,4 16 9 SW 1014,6 -
16.08.2019 15:00:00 35,8 12,0 16 9 SW 1015,1 -
16.08.2019 14:00:00 34,4 12,0 15 8 WSW 1015,8 30
16.08.2019 13:00:00 33,2 12,2 11 6 SW 1016,3 -
16.08.2019 12:00:00 31,1 12,8 11 6 SW 1016,7 -
16.08.2019 11:00:00 29,5 13,3 9 5 SSW 1016,6 30
16.08.2019 10:00:00 27,4 14,7 2 1 ENE 1016,7 -
16.08.2019 09:00:00 24,2 14,9 5 3 E 1016,3 -
16.08.2019 08:00:00 21,7 14,6 5 3 NNE 1016,0 30
16.08.2019 07:00:00 21,9 15,0 4 2 NE 1015,7 -
16.08.2019 06:00:00 22,1 15,0 4 2 ESE 1015,5 -
16.08.2019 05:00:00 23,5 15,0 0 0 N 1015,6 30
16.08.2019 04:00:00 22,9 15,5 8 4 SSE 1015,8 -
16.08.2019 03:00:00 24,0 16,0 8 4 S 1015,8 -
16.08.2019 02:00:00 25,1 15,3 16 9 S 1015,7 30
16.08.2019 01:00:00 27,3 13,5 9 5 S 1015,9 -
16.08.2019 00:00:00 28,5 12,8 11 6 SSW 1015,7 -
15.08.2019 23:00:00 30,5 11,6 18 10 SW 1015,5 30
15.08.2019 22:00:00 33,9 10,4 21 11 W 1014,3 -
15.08.2019 21:00:00 35,7 11,4 21 11 W 1013,8 -
15.08.2019 20:00:00 37,1 12,5 18 10 SW 1013,4 -
15.08.2019 19:00:00 38,4 12,2 16 9 WSW 1013,4 -
15.08.2019 18:00:00 39,3 9,8 11 6 SW 1013,5 -
15.08.2019 17:00:00 39,1 8,7 8 4 SW 1014,1 30
15.08.2019 16:00:00 38,0 9,6 9 5 W 1014,8 -
15.08.2019 15:00:00 37,4 12,1 8 4 W 1015,4 -
15.08.2019 14:00:00 35,2 12,9 9 5 SW 1016,0 30
15.08.2019 13:00:00 33,6 14,1 4 2 SE 1016,6 -
15.08.2019 12:00:00 31,2 15,6 4 2 ENE 1017,1 -
15.08.2019 11:00:00 28,4 16,7 0 0 N 1017,2 30
15.08.2019 10:00:00 26,0 17,4 0 0 N 1017,3 -
15.08.2019 09:00:00 22,8 17,0 4 2 N 1017,2 -
15.08.2019 08:00:00 21,3 16,5 2 1 NNE 1017,0 25
15.08.2019 07:00:00 21,5 16,9 0 0 N 1016,5 -
15.08.2019 06:00:00 21,6 17,0 8 4 ENE 1016,4 -
15.08.2019 05:00:00 22,5 17,4 4 2 SE 1016,4 30
15.08.2019 04:00:00 23,7 17,5 9 5 SSW 1016,2 -
15.08.2019 03:00:00 24,0 17,5 8 4 W 1016,6 -
15.08.2019 02:00:00 24,1 17,4 8 4 S 1016,6 30
15.08.2019 01:00:00 25,1 18,3 11 6 S 1016,3 -
15.08.2019 00:00:00 25,7 18,6 16 9 S 1016,2 -
14.08.2019 23:00:00 31,3 13,6 8 4 SW 1015,5 30
14.08.2019 22:00:00 33,1 13,7 18 10 W 1014,7 -
14.08.2019 21:00:00 36,1 6,9 8 4 WSW 1014,1 -
14.08.2019 20:00:00 38,1 6,0 4 2 W 1013,9 30
14.08.2019 19:00:00 37,5 5,5 5 3 N 1014,3 -
14.08.2019 18:00:00 38,2 6,0 4 2 NW 1014,8 -
14.08.2019 17:00:00 37,4 6,4 9 5 NW 1015,3 30
14.08.2019 16:00:00 36,4 10,6 13 7 WNW 1015,9 -
14.08.2019 15:00:00 35,5 11,8 5 3 W 1016,6 -
14.08.2019 14:00:00 33,8 12,6 8 4 N 1017,4 30
14.08.2019 13:00:00 32,3 13,4 8 4 NNW 1018,1 -
14.08.2019 12:00:00 30,0 13,7 5 3 ENE 1018,5 -
14.08.2019 11:00:00 27,3 11,9 9 5 N 1018,6 30
14.08.2019 10:00:00 24,8 10,5 9 5 NNE 1018,7 -
14.08.2019 09:00:00 22,1 10,3 4 2 NNE 1018,3 -
14.08.2019 08:00:00 19,9 10,3 0 0 N 1017,9 30
14.08.2019 07:00:00 19,7 10,4 9 5 NE 1017,5 -
14.08.2019 06:00:00 19,6 11,5 2 1 ENE 1017,5 -
14.08.2019 05:00:00 20,6 11,8 5 3 NE 1017,3 30
14.08.2019 04:00:00 21,1 11,8 9 5 S 1017,3 -
14.08.2019 03:00:00 21,0 12,4 13 7 S 1017,3 -
14.08.2019 02:00:00 22,3 11,7 15 8 S 1017,3 30
14.08.2019 01:00:00 24,2 10,1 15 8 S 1017,1 -
14.08.2019 00:00:00 25,7 9,9 13 7 SSW 1016,6 -
13.08.2019 23:00:00 28,3 8,0 15 8 SW 1016,0 30
13.08.2019 22:00:00 31,0 6,7 13 7 SW 1015,0 -
13.08.2019 21:00:00 32,9 6,2 21 11 WSW 1014,2 -
13.08.2019 20:00:00 34,4 6,7 24 13 SW 1013,9 30
13.08.2019 19:00:00 36,3 1,1 9 5 W 1013,8 -
13.08.2019 18:00:00 36,3 1,1 8 4 S 1014,1 -
13.08.2019 17:00:00 35,3 1,6 5 3 ENE 1014,5 30
13.08.2019 16:00:00 35,2 2,6 8 4 SW 1015,2 -
13.08.2019 15:00:00 34,2 4,8 5 3 W 1015,8 -
13.08.2019 14:00:00 32,5 5,7 8 4 WSW 1016,3 30
13.08.2019 13:00:00 31,0 7,8 5 3 ESE 1016,9 -
13.08.2019 12:00:00 29,3 8,4 8 4 SE 1016,9 -
13.08.2019 11:00:00 27,8 7,1 4 2 ESE 1016,6 30
13.08.2019 10:00:00 24,8 6,5 11 6 ENE 1016,2 -
13.08.2019 09:00:00 20,7 9,6 4 2 ESE 1016,0 -
13.08.2019 08:00:00 16,7 9,9 4 2 ESE 1015,6 20
13.08.2019 07:00:00 18,4 11,4 0 0 N 1015,0 -
13.08.2019 06:00:00 19,9 11,9 9 5 S 1014,8 -
13.08.2019 05:00:00 18,2 11,8 4 2 S 1014,7 30
13.08.2019 04:00:00 19,4 12,2 5 3 SSE 1014,9 -
13.08.2019 03:00:00 21,2 12,9 9 5 S 1015,4 -
13.08.2019 02:00:00 23,1 12,7 8 4 S 1015,5 30
13.08.2019 01:00:00 23,8 11,0 11 6 S 1015,4 -
13.08.2019 00:00:00 24,6 11,4 4 2 S 1015,3 -

tt = temperature
td = dewpoint
ff = wind speed
dd = wind direction
ppp = reduced air pressure
vv = visibility

Next stations